Location: Krasnoyarskiy Pitomnik
(51.1333°N, 71.6167°E)
Time: 10:27:21
(UTC+00:00)

Meteor 1-4 Rocket - Pass Details

Date: 22 October 2021
Orbit: 447 x 496 km, 81.2° (Epoch: 06 December)

Event Time Altitude Azimuth Distance (km) Brightness Sun altitude
Rises 14:46:45 0° 213° (SSW) 2,471 6.4 -25.7°
Reaches altitude 10° 14:48:58 10° 223° (SW) 1,595 5.5 -26.0°
Enters shadow 14:51:55 32° 280° (W) 800 4.2 -26.5°
